KD7DVD-1 Weather Reports


Display with metric or nautical units.
time (UTC)temp
F
wind
direction
speed
MPH
gust
MPH
rain 1hr
in
rain 24hr
in
rain mn
in
humidity
%
barometer
mb
20260901010016 74 0.0 5.0 0.00 0.00 0.00 57 1008.0
20260901003016 74 270 1.0 6.0 0.00 0.00 0.00 56 1008.1
20260901000016 74 0.0 4.0 0.00 0.00 0.00 55 1008.2
20260831233016 74 270 1.0 5.0 0.00 0.00 0.00 56 1008.5
20260831230016 74 270 1.0 5.0 0.00 0.00 0.00 56 1008.9
20260831223016 74 270 1.0 5.0 0.00 0.00 0.00 57 1009.2
20260831220016 73 0.0 6.0 0.00 0.00 0.00 57 1009.4
20260831213016 73 0.0 6.0 0.00 0.00 0.00 58 1009.8
20260831210016 72 90 1.0 5.0 0.00 0.00 0.00 61 1010.2
20260831203016 70 90 1.0 6.0 0.00 0.00 0.00 62 1010.5
20260831200016 69 90 1.0 6.0 0.00 0.00 0.00 62 1011.1
20260831193016 68 90 1.0 5.0 0.00 0.00 0.00 67 1011.5
20260831190016 66 90 1.0 5.0 0.00 0.00 0.00 70 1012.0
20260831183016 66 90 1.0 6.0 0.00 0.00 0.00 71 1012.2
20260831180015 65 90 1.0 6.0 0.00 0.00 0.00 73 1012.6
20260831173016 63 90 1.0 5.0 0.00 0.00 0.00 76 1012.9
20260831170015 61 90 1.0 5.0 0.00 0.00 0.00 78 1013.0
20260831163017 61 90 1.0 6.0 0.00 0.00 0.00 80 1013.2
20260831160017 59 0.0 5.0 0.00 0.00 0.00 83 1013.4
20260831153018 59 90 1.0 5.0 0.00 0.00 0.00 84 1013.8
20260831150015 58 90 1.0 4.0 0.00 0.00 0.00 86 1013.8
20260831143017 58 0.0 3.0 0.00 0.00 0.00 88 1013.6
20260831140017 57 0.0 0.0 0.00 0.00 0.00 90 1013.7
20260831133017 56 0.0 0.0 0.00 0.00 0.00 90 1013.5
20260831130017 56 0.0 0.0 0.00 0.00 0.00 90 1013.7
20260831123017 56 0.0 0.0 0.00 0.00 0.00 89 1013.9
20260831120016 57 0.0 0.0 0.00 0.00 0.00 89 1014.1
20260831113016 57 0.0 0.0 0.00 0.00 0.00 88 1014.5
20260831110017 58 0.0 1.0 0.00 0.00 0.00 87 1014.7
20260831103016 58 0.0 1.0 0.00 0.00 0.00 85 1014.8
20260831100016 58 0.0 3.0 0.00 0.00 0.00 83 1015.0
20260831093016 60 90 1.0 3.0 0.00 0.00 0.00 81 1015.5
20260831090016 60 0.0 3.0 0.00 0.00 0.00 79 1015.6
20260831083016 59 0.0 2.0 0.00 0.00 0.00 80 1015.6
20260831080016 58 0.0 0.0 0.00 0.00 0.00 82 1016.0
20260831073017 58 0.0 0.0 0.00 0.00 0.00 81 1016.1
20260831070016 58 0.0 0.0 0.00 0.00 0.00 80 1016.4
20260831063017 59 0.0 0.0 0.00 0.00 0.00 78 1016.7
20260831060017 61 0.0 1.0 0.00 0.00 0.00 75 1016.7
20260831053017 61 0.0 0.0 0.00 0.00 0.00 74 1017.1
20260831050017 62 0.0 1.0 0.00 0.00 0.00 72 1017.3
20260831043017 61 0.0 0.0 0.00 0.00 0.00 73 1017.4
20260831040017 63 0.0 1.0 0.00 0.00 0.00 69 1017.3
20260831033017 64 0.0 1.0 0.00 0.00 0.00 65 1017.2
20260831030017 65 0.0 1.0 0.00 0.00 0.00 62 1017.2
20260831023017 66 0.0 1.0 0.00 0.00 0.00 60 1017.1
20260831020016 68 0.0 4.0 0.00 0.00 0.00 57 1017.4
20260831013017 68 270 1.0 5.0 0.00 0.00 0.00 54 1017.6